owner,sensor,date,latitude,longitude,vertical_datum,mass_concentration_of_oxygen_in_sea_water,qcFlag 
SCCF RECON,ioos:station:SCCF:12:1,2009-03-01T00:00:00Z,26.4966,-82.1479,2.01,7.13,1111122 
SCCF RECON,ioos:station:SCCF:12:1,2009-03-01T01:00:00Z,26.4966,-82.1479,1.9,7.13,1111122 
SCCF RECON,ioos:station:SCCF:12:1,2009-03-01T02:00:00Z,26.4966,-82.1479,1.8,7.06,1111122 
SCCF RECON,ioos:station:SCCF:12:1,2009-03-01T03:00:00Z,26.4966,-82.1479,1.74,6.9,1111122 
SCCF RECON,ioos:station:SCCF:12:1,2009-03-01T04:00:00Z,26.4966,-82.1479,1.77,6.73,1111122 
SCCF RECON,ioos:station:SCCF:12:1,2009-03-01T05:00:00Z,26.4966,-82.1479,1.89,6.63,1111122 
SCCF RECON,ioos:station:SCCF:12:1,2009-03-01T06:00:00Z,26.4966,-82.1479,2.03,6.51,1111122 
SCCF RECON,ioos:station:SCCF:12:1,2009-03-01T07:00:00Z,26.4966,-82.1479,2.14,6.57,1111122 
SCCF RECON,ioos:station:SCCF:12:1,2009-03-01T08:00:00Z,26.4966,-82.1479,2.201,6.69,1111122 
SCCF RECON,ioos:station:SCCF:12:1,2009-03-01T09:00:00Z,26.4966,-82.1479,2.23,6.79,1111122 
SCCF RECON,ioos:station:SCCF:12:1,2009-03-01T10:00:00Z,26.4966,-82.1479,2.23,6.63,1111122 
SCCF RECON,ioos:station:SCCF:12:1,2009-03-01T11:00:00Z,26.4966,-82.1479,2.163,6.66,1111122 
SCCF RECON,ioos:station:SCCF:12:1,2009-03-01T12:00:00Z,26.4966,-82.1479,2.08,6.65,1111122 
SCCF RECON,ioos:station:SCCF:12:1,2009-03-01T13:00:00Z,26.4966,-82.1479,2.0,6.58,1111122 
SCCF RECON,ioos:station:SCCF:12:1,2009-03-01T14:00:00Z,26.4966,-82.1479,1.955,6.53,1111122 
SCCF RECON,ioos:station:SCCF:12:1,2009-03-01T15:00:00Z,26.4966,-82.1479,1.984,6.61,1111122 
SCCF RECON,ioos:station:SCCF:12:1,2009-03-01T16:00:00Z,26.4966,-82.1479,2.176,6.57,1111122 
SCCF RECON,ioos:station:SCCF:12:1,2009-03-01T17:00:00Z,26.4966,-82.1479,2.301,6.47,1111122 
SCCF RECON,ioos:station:SCCF:12:1,2009-03-01T18:00:00Z,26.4966,-82.1479,2.329,6.44,1111122 
SCCF RECON,ioos:station:SCCF:12:1,2009-03-01T19:00:00Z,26.4966,-82.1479,2.295,6.45,1111122 
SCCF RECON,ioos:station:SCCF:12:1,2009-03-01T20:00:00Z,26.4966,-82.1479,2.324,6.43,1111122 
SCCF RECON,ioos:station:SCCF:12:1,2009-03-01T21:00:00Z,26.4966,-82.1479,2.306,6.46,1111122 
SCCF RECON,ioos:station:SCCF:12:1,2009-03-01T22:00:00Z,26.4966,-82.1479,2.265,6.54,1111122 
SCCF RECON,ioos:station:SCCF:12:1,2009-03-01T23:00:00Z,26.4966,-82.1479,2.192,6.66,1111122 
SCCF RECON,ioos:station:SCCF:12:1,2009-03-02T00:00:00Z,26.4966,-82.1479,2.103,6.71,1111122 
SCCF RECON,ioos:station:SCCF:12:1,2009-03-02T01:00:00Z,26.4966,-82.1479,2.005,6.73,1111122 
SCCF RECON,ioos:station:SCCF:12:1,2009-03-02T02:00:00Z,26.4966,-82.1479,1.886,6.79,1111122 
SCCF RECON,ioos:station:SCCF:12:1,2009-03-02T03:00:00Z,26.4966,-82.1479,1.772,6.68,1111122 
SCCF RECON,ioos:station:SCCF:12:1,2009-03-02T04:00:00Z,26.4966,-82.1479,1.717,6.59,1111122 
SCCF RECON,ioos:station:SCCF:12:1,2009-03-02T05:00:00Z,26.4966,-82.1479,1.736,6.45,1111122 
SCCF RECON,ioos:station:SCCF:12:1,2009-03-02T06:00:00Z,26.4966,-82.1479,1.804,6.46,1111122 
SCCF RECON,ioos:station:SCCF:12:1,2009-03-02T07:00:00Z,26.4966,-82.1479,1.896,6.55,1111122 
SCCF RECON,ioos:station:SCCF:12:1,2009-03-02T08:00:00Z,26.4966,-82.1479,1.952,6.52,1111122 
SCCF RECON,ioos:station:SCCF:12:1,2009-03-02T09:00:00Z,26.4966,-82.1479,1.903,6.47,1111122 
SCCF RECON,ioos:station:SCCF:12:1,2009-03-02T10:00:00Z,26.4966,-82.1479,1.866,6.46,1111122 
SCCF RECON,ioos:station:SCCF:12:1,2009-03-02T11:00:00Z,26.4966,-82.1479,1.872,6.44,1111122 
SCCF RECON,ioos:station:SCCF:12:1,2009-03-02T12:00:00Z,26.4966,-82.1479,1.854,6.45,1111122 
SCCF RECON,ioos:station:SCCF:12:1,2009-03-02T13:00:00Z,26.4966,-82.1479,1.853,6.47,1111122 
SCCF RECON,ioos:station:SCCF:12:1,2009-03-02T14:00:00Z,26.4966,-82.1479,1.866,6.45,1111122 
SCCF RECON,ioos:station:SCCF:12:1,2009-03-02T15:00:00Z,26.4966,-82.1479,1.896,6.45,1111122 
SCCF RECON,ioos:station:SCCF:12:1,2009-03-02T16:00:00Z,26.4966,-82.1479,1.921,6.51,1111122 
SCCF RECON,ioos:station:SCCF:12:1,2009-03-02T17:00:00Z,26.4966,-82.1479,1.977,6.59,1111122 
SCCF RECON,ioos:station:SCCF:12:1,2009-03-02T18:00:00Z,26.4966,-82.1479,2.076,6.62,1111122 
SCCF RECON,ioos:station:SCCF:12:1,2009-03-02T19:00:00Z,26.4966,-82.1479,2.2,6.68,1111122 
SCCF RECON,ioos:station:SCCF:12:1,2009-03-02T20:00:00Z,26.4966,-82.1479,2.302,6.63,1111122 
SCCF RECON,ioos:station:SCCF:12:1,2009-03-02T21:00:00Z,26.4966,-82.1479,2.328,6.68,1111122 
SCCF RECON,ioos:station:SCCF:12:1,2009-03-02T22:00:00Z,26.4966,-82.1479,2.312,6.74,1111122 
SCCF RECON,ioos:station:SCCF:12:1,2009-03-02T23:00:00Z,26.4966,-82.1479,2.245,6.81,1111122 
SCCF RECON,ioos:station:SCCF:12:1,2009-03-03T00:00:00Z,26.4966,-82.1479,2.141,6.81,1111122 
SCCF RECON,ioos:station:SCCF:12:1,2009-03-03T01:00:00Z,26.4966,-82.1479,2.037,6.81,1111122 
SCCF RECON,ioos:station:SCCF:12:1,2009-03-03T02:00:00Z,26.4966,-82.1479,1.939,6.82,1111122 
SCCF RECON,ioos:station:SCCF:12:1,2009-03-03T03:00:00Z,26.4966,-82.1479,1.847,6.87,1111122 
SCCF RECON,ioos:station:SCCF:12:1,2009-03-03T04:00:00Z,26.4966,-82.1479,1.765,7.08,1111122 
SCCF RECON,ioos:station:SCCF:12:1,2009-03-03T05:00:00Z,26.4966,-82.1479,1.711,7.06,1111122 
SCCF RECON,ioos:station:SCCF:12:1,2009-03-03T06:00:00Z,26.4966,-82.1479,1.699,6.78,1111122 
SCCF RECON,ioos:station:SCCF:12:1,2009-03-03T07:00:00Z,26.4966,-82.1479,1.76,6.74,1111122 
SCCF RECON,ioos:station:SCCF:12:1,2009-03-03T08:00:00Z,26.4966,-82.1479,1.848,6.65,1111122 
SCCF RECON,ioos:station:SCCF:12:1,2009-03-03T09:00:00Z,26.4966,-82.1479,1.92,6.64,1111122 
SCCF RECON,ioos:station:SCCF:12:1,2009-03-03T10:00:00Z,26.4966,-82.1479,1.992,6.52,1111122 
SCCF RECON,ioos:station:SCCF:12:1,2009-03-03T11:00:00Z,26.4966,-82.1479,2.043,6.52,1111122 
SCCF RECON,ioos:station:SCCF:12:1,2009-03-03T12:00:00Z,26.4966,-82.1479,2.057,6.55,1111122 
SCCF RECON,ioos:station:SCCF:12:1,2009-03-03T13:00:00Z,26.4966,-82.1479,2.005,6.6,1111122 
SCCF RECON,ioos:station:SCCF:12:1,2009-03-03T14:00:00Z,26.4966,-82.1479,1.949,6.54,1111122 
SCCF RECON,ioos:station:SCCF:12:1,2009-03-03T15:00:00Z,26.4966,-82.1479,1.953,6.66,1111122 
SCCF RECON,ioos:station:SCCF:12:1,2009-03-03T16:00:00Z,26.4966,-82.1479,1.996,6.71,1111122 
SCCF RECON,ioos:station:SCCF:12:1,2009-03-03T17:00:00Z,26.4966,-82.1479,2.048,6.81,1111122 
SCCF RECON,ioos:station:SCCF:12:1,2009-03-03T18:00:00Z,26.4966,-82.1479,2.11,6.89,1111122 
SCCF RECON,ioos:station:SCCF:12:1,2009-03-03T19:00:00Z,26.4966,-82.1479,2.18,6.92,1111122 
SCCF RECON,ioos:station:SCCF:12:1,2009-03-03T20:00:00Z,26.4966,-82.1479,2.25,7.1,1111122 
SCCF RECON,ioos:station:SCCF:12:1,2009-03-03T21:00:00Z,26.4966,-82.1479,2.297,7.09,1111122 
SCCF RECON,ioos:station:SCCF:12:1,2009-03-03T22:00:00Z,26.4966,-82.1479,2.332,7.19,1111122 
SCCF RECON,ioos:station:SCCF:12:1,2009-03-03T23:00:00Z,26.4966,-82.1479,2.319,7.22,1111122 
SCCF RECON,ioos:station:SCCF:12:1,2009-03-04T00:00:00Z,26.4966,-82.1479,2.253,7.25,1111122 
SCCF RECON,ioos:station:SCCF:12:1,2009-03-04T01:00:00Z,26.4966,-82.1479,2.167,7.21,1111122 
SCCF RECON,ioos:station:SCCF:12:1,2009-03-04T02:00:00Z,26.4966,-82.1479,2.07,7.22,1111122 
SCCF RECON,ioos:station:SCCF:12:1,2009-03-04T03:00:00Z,26.4966,-82.1479,1.957,7.26,1111122 
SCCF RECON,ioos:station:SCCF:12:1,2009-03-04T04:00:00Z,26.4966,-82.1479,1.842,7.32,1111122 
SCCF RECON,ioos:station:SCCF:12:1,2009-03-04T05:00:00Z,26.4966,-82.1479,1.732,7.42,1111122 
SCCF RECON,ioos:station:SCCF:12:1,2009-03-04T06:00:00Z,26.4966,-82.1479,1.654,7.45,1111122 
SCCF RECON,ioos:station:SCCF:12:1,2009-03-04T07:00:00Z,26.4966,-82.1479,1.62,7.37,1111122 
SCCF RECON,ioos:station:SCCF:12:1,2009-03-04T08:00:00Z,26.4966,-82.1479,1.662,7.21,1111122 
SCCF RECON,ioos:station:SCCF:12:1,2009-03-04T09:00:00Z,26.4966,-82.1479,1.756,6.99,1111122 
SCCF RECON,ioos:station:SCCF:12:1,2009-03-04T10:00:00Z,26.4966,-82.1479,1.818,6.91,1111122 
SCCF RECON,ioos:station:SCCF:12:1,2009-03-04T11:00:00Z,26.4966,-82.1479,1.871,6.89,1111122 
SCCF RECON,ioos:station:SCCF:12:1,2009-03-04T12:00:00Z,26.4966,-82.1479,1.93,6.72,1111122 
SCCF RECON,ioos:station:SCCF:12:1,2009-03-04T13:00:00Z,26.4966,-82.1479,1.995,6.89,1111122 
SCCF RECON,ioos:station:SCCF:12:1,2009-03-04T14:00:00Z,26.4966,-82.1479,2.053,6.88,1111122 
SCCF RECON,ioos:station:SCCF:12:1,2009-03-04T15:00:00Z,26.4966,-82.1479,2.08,6.94,1111122 
SCCF RECON,ioos:station:SCCF:12:1,2009-03-04T16:00:00Z,26.4966,-82.1479,2.093,7.04,1111122 
SCCF RECON,ioos:station:SCCF:12:1,2009-03-04T17:00:00Z,26.4966,-82.1479,2.111,7.21,1111122 
SCCF RECON,ioos:station:SCCF:12:1,2009-03-04T18:00:00Z,26.4966,-82.1479,2.159,7.16,1111122 
SCCF RECON,ioos:station:SCCF:12:1,2009-03-04T19:00:00Z,26.4966,-82.1479,2.212,7.37,1111122 
SCCF RECON,ioos:station:SCCF:12:1,2009-03-04T20:00:00Z,26.4966,-82.1479,2.279,7.59,1111122 
SCCF RECON,ioos:station:SCCF:12:1,2009-03-04T21:00:00Z,26.4966,-82.1479,2.335,7.39,1111122 
SCCF RECON,ioos:station:SCCF:12:1,2009-03-04T22:00:00Z,26.4966,-82.1479,2.383,7.33,1111122 
SCCF RECON,ioos:station:SCCF:12:1,2009-03-04T23:00:00Z,26.4966,-82.1479,2.415,7.33,1111122 
SCCF RECON,ioos:station:SCCF:12:1,2009-03-05T00:00:00Z,26.4966,-82.1479,2.381,7.39,1111122 
SCCF RECON,ioos:station:SCCF:12:1,2009-03-05T01:00:00Z,26.4966,-82.1479,2.3,7.37,1111122 
SCCF RECON,ioos:station:SCCF:12:1,2009-03-05T02:00:00Z,26.4966,-82.1479,2.19,7.36,1111122 
SCCF RECON,ioos:station:SCCF:12:1,2009-03-05T03:00:00Z,26.4966,-82.1479,2.094,7.25,1111122 
SCCF RECON,ioos:station:SCCF:12:1,2009-03-05T04:00:00Z,26.4966,-82.1479,2.009,7.24,1111122 
SCCF RECON,ioos:station:SCCF:12:1,2009-03-05T05:00:00Z,26.4966,-82.1479,1.91,7.26,1111122 
SCCF RECON,ioos:station:SCCF:12:1,2009-03-05T06:00:00Z,26.4966,-82.1479,1.818,7.16,1111122 
SCCF RECON,ioos:station:SCCF:12:1,2009-03-05T07:00:00Z,26.4966,-82.1479,1.723,7.13,1111122 
SCCF RECON,ioos:station:SCCF:12:1,2009-03-05T08:00:00Z,26.4966,-82.1479,1.668,7.09,1111122 
SCCF RECON,ioos:station:SCCF:12:1,2009-03-05T09:00:00Z,26.4966,-82.1479,1.689,7.48,1111122 
SCCF RECON,ioos:station:SCCF:12:1,2009-03-05T10:00:00Z,26.4966,-82.1479,1.803,7.3,1111122 
SCCF RECON,ioos:station:SCCF:12:1,2009-03-05T11:00:00Z,26.4966,-82.1479,1.92,7.0,1111122 
SCCF RECON,ioos:station:SCCF:12:1,2009-03-05T12:00:00Z,26.4966,-82.1479,2.02,6.93,1111122 
SCCF RECON,ioos:station:SCCF:12:1,2009-03-05T13:00:00Z,26.4966,-82.1479,2.112,6.93,1111122 
SCCF RECON,ioos:station:SCCF:12:1,2009-03-05T14:00:00Z,26.4966,-82.1479,2.186,6.99,1111122 
SCCF RECON,ioos:station:SCCF:12:1,2009-03-05T15:00:00Z,26.4966,-82.1479,2.218,7.12,1111122 
SCCF RECON,ioos:station:SCCF:12:1,2009-03-05T16:00:00Z,26.4966,-82.1479,2.204,7.14,1111122 
SCCF RECON,ioos:station:SCCF:12:1,2009-03-05T17:00:00Z,26.4966,-82.1479,2.167,7.26,1111122 
SCCF RECON,ioos:station:SCCF:12:1,2009-03-05T18:00:00Z,26.4966,-82.1479,2.155,7.29,1111122 
SCCF RECON,ioos:station:SCCF:12:1,2009-03-05T19:00:00Z,26.4966,-82.1479,2.199,7.41,1111122 
SCCF RECON,ioos:station:SCCF:12:1,2009-03-05T20:00:00Z,26.4966,-82.1479,2.259,7.45,1111122 
SCCF RECON,ioos:station:SCCF:12:1,2009-03-05T21:00:00Z,26.4966,-82.1479,2.338,7.49,1111122 
SCCF RECON,ioos:station:SCCF:12:1,2009-03-05T22:00:00Z,26.4966,-82.1479,2.419,7.54,1111122 
SCCF RECON,ioos:station:SCCF:12:1,2009-03-05T23:00:00Z,26.4966,-82.1479,2.483,7.47,1111122 
SCCF RECON,ioos:station:SCCF:12:1,2009-03-06T00:00:00Z,26.4966,-82.1479,2.501,7.39,1111122 
SCCF RECON,ioos:station:SCCF:12:1,2009-03-06T01:00:00Z,26.4966,-82.1479,2.489,7.43,1111122 
SCCF RECON,ioos:station:SCCF:12:1,2009-03-06T02:00:00Z,26.4966,-82.1479,2.44,7.39,1111122 
SCCF RECON,ioos:station:SCCF:12:1,2009-03-06T03:00:00Z,26.4966,-82.1479,2.37,7.34,1111122 
SCCF RECON,ioos:station:SCCF:12:1,2009-03-06T04:00:00Z,26.4966,-82.1479,2.258,7.29,1111122 
SCCF RECON,ioos:station:SCCF:12:1,2009-03-06T05:00:00Z,26.4966,-82.1479,2.13,7.24,1111122 
SCCF RECON,ioos:station:SCCF:12:1,2009-03-06T06:00:00Z,26.4966,-82.1479,2.002,7.26,1111122 
SCCF RECON,ioos:station:SCCF:12:1,2009-03-06T07:00:00Z,26.4966,-82.1479,1.878,7.3,1111122 
SCCF RECON,ioos:station:SCCF:12:1,2009-03-06T08:00:00Z,26.4966,-82.1479,1.76,7.23,1111122 
SCCF RECON,ioos:station:SCCF:12:1,2009-03-06T09:00:00Z,26.4966,-82.1479,1.68,7.14,1111122 
SCCF RECON,ioos:station:SCCF:12:1,2009-03-06T10:00:00Z,26.4966,-82.1479,1.692,7.11,1111122 
SCCF RECON,ioos:station:SCCF:12:1,2009-03-06T11:00:00Z,26.4966,-82.1479,1.821,7.06,1111122 
SCCF RECON,ioos:station:SCCF:12:1,2009-03-06T12:00:00Z,26.4966,-82.1479,1.95,7.01,1111122 
SCCF RECON,ioos:station:SCCF:12:1,2009-03-06T13:00:00Z,26.4966,-82.1479,2.058,6.95,1111122 
SCCF RECON,ioos:station:SCCF:12:1,2009-03-06T14:00:00Z,26.4966,-82.1479,2.15,6.98,1111122 
SCCF RECON,ioos:station:SCCF:12:1,2009-03-06T15:00:00Z,26.4966,-82.1479,2.228,7.11,1111122 
SCCF RECON,ioos:station:SCCF:12:1,2009-03-06T16:00:00Z,26.4966,-82.1479,2.262,7.18,1111122 
SCCF RECON,ioos:station:SCCF:12:1,2009-03-06T17:00:00Z,26.4966,-82.1479,2.253,7.25,1111122 
SCCF RECON,ioos:station:SCCF:12:1,2009-03-06T18:00:00Z,26.4966,-82.1479,2.204,7.2,1111122 
SCCF RECON,ioos:station:SCCF:12:1,2009-03-06T19:00:00Z,26.4966,-82.1479,2.17,7.25,1111122 
SCCF RECON,ioos:station:SCCF:12:1,2009-03-06T20:00:00Z,26.4966,-82.1479,2.19,7.41,1111122 
SCCF RECON,ioos:station:SCCF:12:1,2009-03-06T21:00:00Z,26.4966,-82.1479,2.251,7.47,1111122 
SCCF RECON,ioos:station:SCCF:12:1,2009-03-06T22:00:00Z,26.4966,-82.1479,2.312,7.4,1111122 
SCCF RECON,ioos:station:SCCF:12:1,2009-03-06T23:00:00Z,26.4966,-82.1479,2.37,7.27,1111122 
SCCF RECON,ioos:station:SCCF:12:1,2009-03-07T00:00:00Z,26.4966,-82.1479,2.42,7.26,1111122 
SCCF RECON,ioos:station:SCCF:12:1,2009-03-07T01:00:00Z,26.4966,-82.1479,2.46,7.22,1111122 
SCCF RECON,ioos:station:SCCF:12:1,2009-03-07T02:00:00Z,26.4966,-82.1479,2.473,7.24,1111122 
SCCF RECON,ioos:station:SCCF:12:1,2009-03-07T03:00:00Z,26.4966,-82.1479,2.45,7.3,1111122 
SCCF RECON,ioos:station:SCCF:12:1,2009-03-07T04:00:00Z,26.4966,-82.1479,2.387,7.25,1111122 
SCCF RECON,ioos:station:SCCF:12:1,2009-03-07T05:00:00Z,26.4966,-82.1479,2.273,7.25,1111122 
SCCF RECON,ioos:station:SCCF:12:1,2009-03-07T06:00:00Z,26.4966,-82.1479,2.139,7.09,1111122 
SCCF RECON,ioos:station:SCCF:12:1,2009-03-07T07:00:00Z,26.4966,-82.1479,1.99,7.18,1111122 
SCCF RECON,ioos:station:SCCF:12:1,2009-03-07T08:00:00Z,26.4966,-82.1479,1.86,7.14,1111122 
SCCF RECON,ioos:station:SCCF:12:1,2009-03-07T09:00:00Z,26.4966,-82.1479,1.744,7.07,1111122 
SCCF RECON,ioos:station:SCCF:12:1,2009-03-07T10:00:00Z,26.4966,-82.1479,1.662,7.01,1111122 
SCCF RECON,ioos:station:SCCF:12:1,2009-03-07T11:00:00Z,26.4966,-82.1479,1.669,6.98,1111122 
SCCF RECON,ioos:station:SCCF:12:1,2009-03-07T12:00:00Z,26.4966,-82.1479,1.81,6.92,1111122 
SCCF RECON,ioos:station:SCCF:12:1,2009-03-07T13:00:00Z,26.4966,-82.1479,1.95,6.9,1111122 
SCCF RECON,ioos:station:SCCF:12:1,2009-03-07T14:00:00Z,26.4966,-82.1479,2.08,6.91,1111122 
SCCF RECON,ioos:station:SCCF:12:1,2009-03-07T15:00:00Z,26.4966,-82.1479,2.18,7.04,1111122 
SCCF RECON,ioos:station:SCCF:12:1,2009-03-07T16:00:00Z,26.4966,-82.1479,2.241,7.05,1111122 
SCCF RECON,ioos:station:SCCF:12:1,2009-03-07T17:00:00Z,26.4966,-82.1479,2.27,7.13,1111122 
SCCF RECON,ioos:station:SCCF:12:1,2009-03-07T18:00:00Z,26.4966,-82.1479,2.24,7.15,1111122 
SCCF RECON,ioos:station:SCCF:12:1,2009-03-07T19:00:00Z,26.4966,-82.1479,2.172,7.18,1111122 
SCCF RECON,ioos:station:SCCF:12:1,2009-03-07T20:00:00Z,26.4966,-82.1479,2.121,7.19,1111122 
SCCF RECON,ioos:station:SCCF:12:1,2009-03-07T21:00:00Z,26.4966,-82.1479,2.119,7.27,1111122 
SCCF RECON,ioos:station:SCCF:12:1,2009-03-07T22:00:00Z,26.4966,-82.1479,2.172,7.23,1111122 
SCCF RECON,ioos:station:SCCF:12:1,2009-03-07T23:00:00Z,26.4966,-82.1479,2.25,7.26,1111122 
SCCF RECON,ioos:station:SCCF:12:1,2009-03-08T00:00:00Z,26.4966,-82.1479,2.34,7.21,1111122 
SCCF RECON,ioos:station:SCCF:12:1,2009-03-08T01:00:00Z,26.4966,-82.1479,2.42,7.15,1111122 
SCCF RECON,ioos:station:SCCF:12:1,2009-03-08T02:00:00Z,26.4966,-82.1479,2.49,7.16,1111122 
SCCF RECON,ioos:station:SCCF:12:1,2009-03-08T03:00:00Z,26.4966,-82.1479,2.55,7.08,1111122 
SCCF RECON,ioos:station:SCCF:12:1,2009-03-08T04:00:00Z,26.4966,-82.1479,2.54,7.17,1111122 
SCCF RECON,ioos:station:SCCF:12:1,2009-03-08T05:00:00Z,26.4966,-82.1479,2.45,7.09,1111122 
SCCF RECON,ioos:station:SCCF:12:1,2009-03-08T06:00:00Z,26.4966,-82.1479,2.316,7.07,1111122 
SCCF RECON,ioos:station:SCCF:12:1,2009-03-08T07:00:00Z,26.4966,-82.1479,2.158,7.03,1111122 
SCCF RECON,ioos:station:SCCF:12:1,2009-03-08T08:00:00Z,26.4966,-82.1479,2.01,7.04,1111122 
SCCF RECON,ioos:station:SCCF:12:1,2009-03-08T09:00:00Z,26.4966,-82.1479,1.88,6.99,1111122 
SCCF RECON,ioos:station:SCCF:12:1,2009-03-08T10:00:00Z,26.4966,-82.1479,1.769,6.91,1111122 
SCCF RECON,ioos:station:SCCF:12:1,2009-03-08T11:00:00Z,26.4966,-82.1479,1.7,6.9,1111122 
SCCF RECON,ioos:station:SCCF:12:1,2009-03-08T12:00:00Z,26.4966,-82.1479,1.713,6.77,1111122 
SCCF RECON,ioos:station:SCCF:12:1,2009-03-08T13:00:00Z,26.4966,-82.1479,1.879,6.77,1111122 
SCCF RECON,ioos:station:SCCF:12:1,2009-03-08T14:00:00Z,26.4966,-82.1479,2.02,6.8,1111122 
SCCF RECON,ioos:station:SCCF:12:1,2009-03-08T15:00:00Z,26.4966,-82.1479,2.14,6.79,1111122 
SCCF RECON,ioos:station:SCCF:12:1,2009-03-08T16:00:00Z,26.4966,-82.1479,2.234,6.87,1111122 
SCCF RECON,ioos:station:SCCF:12:1,2009-03-08T17:00:00Z,26.4966,-82.1479,2.289,7.03,1111122 
SCCF RECON,ioos:station:SCCF:12:1,2009-03-08T18:00:00Z,26.4966,-82.1479,2.283,7.05,1111122 
SCCF RECON,ioos:station:SCCF:12:1,2009-03-08T19:00:00Z,26.4966,-82.1479,2.218,7.08,1111122 
SCCF RECON,ioos:station:SCCF:12:1,2009-03-08T20:00:00Z,26.4966,-82.1479,2.128,7.08,1111122 
SCCF RECON,ioos:station:SCCF:12:1,2009-03-08T21:00:00Z,26.4966,-82.1479,2.05,7.02,1111122 
SCCF RECON,ioos:station:SCCF:12:1,2009-03-08T22:00:00Z,26.4966,-82.1479,2.01,7.15,1111122 
SCCF RECON,ioos:station:SCCF:12:1,2009-03-08T23:00:00Z,26.4966,-82.1479,2.049,7.16,1111122 
SCCF RECON,ioos:station:SCCF:12:1,2009-03-09T00:00:00Z,26.4966,-82.1479,2.15,7.03,1111122 
SCCF RECON,ioos:station:SCCF:12:1,2009-03-09T01:00:00Z,26.4966,-82.1479,2.27,7.0,1111122 
SCCF RECON,ioos:station:SCCF:12:1,2009-03-09T02:00:00Z,26.4966,-82.1479,2.39,6.93,1111122 
SCCF RECON,ioos:station:SCCF:12:1,2009-03-09T03:00:00Z,26.4966,-82.1479,2.48,6.91,1111122 
SCCF RECON,ioos:station:SCCF:12:1,2009-03-09T04:00:00Z,26.4966,-82.1479,2.54,6.76,1111122 
SCCF RECON,ioos:station:SCCF:12:1,2009-03-09T05:00:00Z,26.4966,-82.1479,2.53,6.87,1111122 
SCCF RECON,ioos:station:SCCF:12:1,2009-03-09T06:00:00Z,26.4966,-82.1479,2.44,6.96,1111122 
SCCF RECON,ioos:station:SCCF:12:1,2009-03-09T07:00:00Z,26.4966,-82.1479,2.3,6.89,1111122 
SCCF RECON,ioos:station:SCCF:12:1,2009-03-09T08:00:00Z,26.4966,-82.1479,2.14,6.88,1111122 
SCCF RECON,ioos:station:SCCF:12:1,2009-03-09T09:00:00Z,26.4966,-82.1479,2.0,6.79,1111122 
SCCF RECON,ioos:station:SCCF:12:1,2009-03-09T10:00:00Z,26.4966,-82.1479,1.87,6.74,1111122 
SCCF RECON,ioos:station:SCCF:12:1,2009-03-09T11:00:00Z,26.4966,-82.1479,1.77,6.94,1111122 
SCCF RECON,ioos:station:SCCF:12:1,2009-03-09T12:00:00Z,26.4966,-82.1479,1.719,6.52,1111122 
SCCF RECON,ioos:station:SCCF:12:1,2009-03-09T13:00:00Z,26.4966,-82.1479,1.794,6.48,1111122 
SCCF RECON,ioos:station:SCCF:12:1,2009-03-09T14:00:00Z,26.4966,-82.1479,1.971,6.59,1111122 
SCCF RECON,ioos:station:SCCF:12:1,2009-03-09T15:00:00Z,26.4966,-82.1479,2.121,6.61,1111122 
SCCF RECON,ioos:station:SCCF:12:1,2009-03-09T16:00:00Z,26.4966,-82.1479,2.243,6.67,1111122 
SCCF RECON,ioos:station:SCCF:12:1,2009-03-09T17:00:00Z,26.4966,-82.1479,2.325,6.68,1111122 
SCCF RECON,ioos:station:SCCF:12:1,2009-03-09T18:00:00Z,26.4966,-82.1479,2.351,6.84,1111122 
SCCF RECON,ioos:station:SCCF:12:1,2009-03-09T19:00:00Z,26.4966,-82.1479,2.29,7.08,1111122 
SCCF RECON,ioos:station:SCCF:12:1,2009-03-09T20:00:00Z,26.4966,-82.1479,2.18,7.01,1111122 
SCCF RECON,ioos:station:SCCF:12:1,2009-03-09T21:00:00Z,26.4966,-82.1479,2.064,7.05,1111122 
SCCF RECON,ioos:station:SCCF:12:1,2009-03-09T22:00:00Z,26.4966,-82.1479,1.973,6.96,1111122 
SCCF RECON,ioos:station:SCCF:12:1,2009-03-09T23:00:00Z,26.4966,-82.1479,1.937,7.01,1111122 
SCCF RECON,ioos:station:SCCF:12:1,2009-03-10T00:00:00Z,26.4966,-82.1479,1.96,6.99,1111122 
SCCF RECON,ioos:station:SCCF:12:1,2009-03-10T01:00:00Z,26.4966,-82.1479,2.06,6.91,1111122 
SCCF RECON,ioos:station:SCCF:12:1,2009-03-10T02:00:00Z,26.4966,-82.1479,2.22,6.91,1111122 
SCCF RECON,ioos:station:SCCF:12:1,2009-03-10T03:00:00Z,26.4966,-82.1479,2.369,6.84,1111122 
SCCF RECON,ioos:station:SCCF:12:1,2009-03-10T04:00:00Z,26.4966,-82.1479,2.47,6.67,1111122 
SCCF RECON,ioos:station:SCCF:12:1,2009-03-10T05:00:00Z,26.4966,-82.1479,2.529,6.54,1111122 
SCCF RECON,ioos:station:SCCF:12:1,2009-03-10T06:00:00Z,26.4966,-82.1479,2.498,6.67,1111122 
SCCF RECON,ioos:station:SCCF:12:1,2009-03-10T07:00:00Z,26.4966,-82.1479,2.38,6.7,1111122 
SCCF RECON,ioos:station:SCCF:12:1,2009-03-10T08:00:00Z,26.4966,-82.1479,2.222,6.59,1111122 
SCCF RECON,ioos:station:SCCF:12:1,2009-03-10T09:00:00Z,26.4966,-82.1479,2.08,6.4,1111122 
SCCF RECON,ioos:station:SCCF:12:1,2009-03-10T10:00:00Z,26.4966,-82.1479,1.952,6.4,1111122 
SCCF RECON,ioos:station:SCCF:12:1,2009-03-10T11:00:00Z,26.4966,-82.1479,1.84,6.65,1111122 
SCCF RECON,ioos:station:SCCF:12:1,2009-03-10T12:00:00Z,26.4966,-82.1479,1.759,6.48,1111122 
SCCF RECON,ioos:station:SCCF:12:1,2009-03-10T13:00:00Z,26.4966,-82.1479,1.74,6.35,1111122 
SCCF RECON,ioos:station:SCCF:12:1,2009-03-10T14:00:00Z,26.4966,-82.1479,1.885,6.38,1111122 
SCCF RECON,ioos:station:SCCF:12:1,2009-03-10T15:00:00Z,26.4966,-82.1479,2.066,6.42,1111122 
SCCF RECON,ioos:station:SCCF:12:1,2009-03-10T16:00:00Z,26.4966,-82.1479,2.204,6.49,1111122 
SCCF RECON,ioos:station:SCCF:12:1,2009-03-10T17:00:00Z,26.4966,-82.1479,2.302,6.47,1111122 
SCCF RECON,ioos:station:SCCF:12:1,2009-03-10T18:00:00Z,26.4966,-82.1479,2.344,6.59,1111122 
SCCF RECON,ioos:station:SCCF:12:1,2009-03-10T19:00:00Z,26.4966,-82.1479,2.302,6.77,1111122 
SCCF RECON,ioos:station:SCCF:12:1,2009-03-10T20:00:00Z,26.4966,-82.1479,2.2,6.85,1111122 
SCCF RECON,ioos:station:SCCF:12:1,2009-03-10T21:00:00Z,26.4966,-82.1479,2.079,6.86,1111122 
SCCF RECON,ioos:station:SCCF:12:1,2009-03-10T22:00:00Z,26.4966,-82.1479,1.97,6.71,1111122 
SCCF RECON,ioos:station:SCCF:12:1,2009-03-10T23:00:00Z,26.4966,-82.1479,1.881,6.85,1111122 
SCCF RECON,ioos:station:SCCF:12:1,2009-03-11T00:00:00Z,26.4966,-82.1479,1.84,6.93,1111122 
SCCF RECON,ioos:station:SCCF:12:1,2009-03-11T01:00:00Z,26.4966,-82.1479,1.871,6.69,1111122 
SCCF RECON,ioos:station:SCCF:12:1,2009-03-11T02:00:00Z,26.4966,-82.1479,2.013,6.74,1111122 
SCCF RECON,ioos:station:SCCF:12:1,2009-03-11T03:00:00Z,26.4966,-82.1479,2.197,6.7,1111122 
SCCF RECON,ioos:station:SCCF:12:1,2009-03-11T04:00:00Z,26.4966,-82.1479,2.34,6.59,1111122 
SCCF RECON,ioos:station:SCCF:12:1,2009-03-11T05:00:00Z,26.4966,-82.1479,2.442,6.54,1111122 
SCCF RECON,ioos:station:SCCF:12:1,2009-03-11T06:00:00Z,26.4966,-82.1479,2.508,6.54,1111122 
SCCF RECON,ioos:station:SCCF:12:1,2009-03-11T07:00:00Z,26.4966,-82.1479,2.47,6.68,1111122 
SCCF RECON,ioos:station:SCCF:12:1,2009-03-11T08:00:00Z,26.4966,-82.1479,2.353,6.62,1111122 
SCCF RECON,ioos:station:SCCF:12:1,2009-03-11T09:00:00Z,26.4966,-82.1479,2.201,6.66,1111122 
SCCF RECON,ioos:station:SCCF:12:1,2009-03-11T10:00:00Z,26.4966,-82.1479,2.07,6.47,1111122 
SCCF RECON,ioos:station:SCCF:12:1,2009-03-11T11:00:00Z,26.4966,-82.1479,1.96,6.51,1111122 
SCCF RECON,ioos:station:SCCF:12:1,2009-03-11T12:00:00Z,26.4966,-82.1479,1.88,6.41,1111122 
SCCF RECON,ioos:station:SCCF:12:1,2009-03-11T13:00:00Z,26.4966,-82.1479,1.842,6.43,1111122 
SCCF RECON,ioos:station:SCCF:12:1,2009-03-11T14:00:00Z,26.4966,-82.1479,1.923,6.28,1111122 
SCCF RECON,ioos:station:SCCF:12:1,2009-03-11T15:00:00Z,26.4966,-82.1479,2.107,6.2,1111122 
SCCF RECON,ioos:station:SCCF:12:1,2009-03-11T16:00:00Z,26.4966,-82.1479,2.259,6.35,1111122 
SCCF RECON,ioos:station:SCCF:12:1,2009-03-11T17:00:00Z,26.4966,-82.1479,2.359,6.55,1111122 
SCCF RECON,ioos:station:SCCF:12:1,2009-03-11T18:00:00Z,26.4966,-82.1479,2.401,6.5,1111122 
SCCF RECON,ioos:station:SCCF:12:1,2009-03-11T19:00:00Z,26.4966,-82.1479,2.376,6.62,1111122 
SCCF RECON,ioos:station:SCCF:12:1,2009-03-11T20:00:00Z,26.4966,-82.1479,2.281,6.79,1111122 